RH
13 12 10 8 8 7 7 6 6 5 5 6 7 8 8 8 9 9 10 10 10 11 12 12 11 12 12 12 12 13 13 13 14 14 15 15 16 16 16 16 17 17 17
14 14 12 9 8 8 8 7 6 6 5 5 6 6 8 8 8 8 10 10 10 10 11 12 12 12 11 11 12 12 13 14 15 16 16 16 16 17 17 17 17 17 18
15 15 15 12 10 9 8 8 7 6 6 5 5 6 7 7 8 8 8 9 10 10 11 11 11 11 10 11 12 13 15 16 17 18 18 18 18 19 19 20 20 20 20
16 16 16 15 13 11 9 9 8 7 7 6 6 6 6 7 7 8 8 8 10 11 10 11 11 9 11 14 15 16 17 18 19 19 19 19 19 19 20 20 20 20 20
16 17 17 17 16 14 11 10 9 8 8 7 6 6 6 6 6 7 8 8 10 11 12 11 10 10 15 16 17 18 18 18 19 20 22 20 20 19 18 18 19 18 19
17 18 18 18 18 17 16 13 11 10 9 8 8 7 6 6 6 7 8 9 10 11 11 9 10 15 17 18 19 20 20 20 21 21 22 22 21 20 19 19 20 20 18
18 18 19 20 20 19 18 17 14 13 10 10 9 9 8 7 6 7 7 8 9 11 10 9 13 17 18 19 20 21 22 22 22 22 22 22 23 22 22 22 20 18 17
18 19 20 21 21 21 21 20 19 17 15 12 11 10 10 9 7 7 8 9 10 11 9 11 16 18 18 19 20 22 23 23 23 23 24 24 24 24 22 20 19 17 17
16 18 20 21 23 23 23 23 22 21 19 17 14 14 12 11 10 9 9 10 11 12 10 12 17 18 19 19 21 22 25 24 24 23 24 26 26 26 24 22 19 19 20
16 16 16 18 22 23 24 24 24 24 22 20 18 16 15 14 13 12 11 11 12 13 12 12 17 18 19 20 21 23 24 26 25 25 26 29 28 26 25 22 21 21 21
18 17 17 17 17 17 18 21 23 23 24 24 22 19 18 17 16 14 14 15 16 17 15 15 19 20 20 21 23 23 25 27 29 29 29 32 32 29 26 24 24 24 26
21 21 20 19 19 19 19 20 22 21 24 24 24 23 21 20 19 19 17 17 16 18 18 17 20 21 23 23 24 26 28 33 33 35 34 35 32 29 27 26 26 29 28
25 26 26 25 24 24 25 24 24 24 25 26 26 26 25 23 22 22 20 20 20 22 21 21 21 24 24 25 28 31 34 37 37 38 41 37 34 32 31 33 34 31 32
33 35 36 36 36 36 37 35 34 33 32 31 30 29 28 27 26 25 24 23 23 22 22 22 24 27 28 32 32 32 35 38 40 42 44 40 36 47 48 43 38 36 30
58 52 46 46 50 53 52 50 49 47 45 43 40 37 34 32 31 28 27 26 27 26 26 28 29 31 34 37 37 36 40 42 44 45 44 43 64 60 47 48 47 32 25
96 98 90 67 62 66 67 64 65 65 60 57 53 46 41 37 34 32 32 31 31 32 31 31 32 36 38 40 40 43 44 46 48 48 57 75 66 54 46 40 33 26 23
87 100 100 99 88 80 86 77 72 74 74 75 72 66 58 52 47 39 38 38 37 38 39 37 40 42 43 46 50 50 48 52 54 71 75 80 60 52 43 34 26 23 16
98 100 100 100 100 99 98 95 95 100 98 98 92 90 85 76 57 45 41 42 44 45 47 46 49 49 53 55 57 54 55 57 69 89 70 70 75 48 35 26 23 16 9
86 80 91 90 87 99 99 99 100 100 100 99 96 99 99 100 98 92 84 56 70 80 65 54 57 58 64 68 60 59 62 84 93 84 92 74 50 37 28 20 14 8 5
48 52 55 56 61 87 100 100 100 100 100 100 100 100 97 90 76 99 100 99 98 95 94 90 90 84 80 81 86 93 94 88 96 95 65 50 35 27 20 13 8 5 4
43 36 32 34 39 47 85 88 99 99 97 86 96 99 97 89 85 99 100 100 100 97 96 94 96 94 95 96 96 96 91 97 95 71 52 32 24 19 10 7 5 4 4
44 46 38 33 32 30 38 63 100 98 100 100 98 100 94 92 100 99 100 100 100 100 99 96 96 97 96 96 96 98 98 96 85 51 33 22 18 9 7 6 4 4 4
39 41 48 49 38 37 34 60 90 100 100 98 100 97 98 99 100 98 100 99 98 97 97 98 98 96 98 100 99 98 95 70 47 37 30 16 9 7 6 5 5 6 6
32 37 42 44 51 52 55 93 80 85 94 99 99 98 100 100 100 98 98 97 98 96 97 98 95 96 96 98 99 95 68 42 35 29 19 9 7 6 6 6 7 8 8
35 32 40 44 44 52 51 72 79 91 99 96 100 99 100 95 98 100 96 97 97 97 97 99 94 96 98 98 90 65 42 31 24 16 8 7 6 5 6 8 9 10 12
31 34 33 42 46 48 55 57 76 97 96 100 99 99 100 93 99 99 94 96 96 97 96 96 97 98 96 88 70 41 32 25 12 8 7 6 6 5 4 6 10 12 15
Wind_Speed
16 14 13 12 12 11 10 10 10 9 7 7 6 5 4 4 4 5 4 4 6 5 4 4 3 4 2 3 3 3 4 4 4 5 6 6 6 6 7 8 9 9 10
16 15 14 13 12 11 10 9 9 9 8 7 7 6 5 4 4 3 2 3 2 3 3 3 3 1 1 2 3 2 3 3 5 6 7 7 7 8 9 10 11 10 11
18 16 15 14 13 11 10 9 8 8 8 8 7 7 6 6 5 5 4 4 4 4 3 1 1 2 3 3 4 5 6 6 6 6 7 9 10 10 10 11 12 14 13
21 18 17 15 14 13 12 11 10 9 9 9 8 8 7 7 7 7 7 7 7 7 7 5 5 6 5 6 7 8 8 8 8 9 10 11 12 13 13 13 14 14 15
23 20 18 16 15 13 11 11 9 9 9 9 9 9 9 9 9 10 10 10 10 10 10 9 8 8 8 9 9 10 11 11 11 11 11 12 13 14 15 16 16 17 18
25 24 21 17 15 14 12 12 12 11 11 11 10 10 10 11 11 11 12 12 12 12 13 13 12 12 11 12 12 12 13 14 13 13 14 14 14 15 16 16 18 18 18
27 26 22 19 18 14 15 14 12 11 11 10 11 11 12 12 14 14 13 15 15 15 15 15 14 14 14 15 14 15 16 16 16 17 18 18 16 16 17 18 19 19 18
31 28 25 22 20 20 16 16 14 12 12 12 12 14 14 13 16 17 16 16 17 18 17 17 17 16 16 17 16 17 18 18 18 18 19 20 20 19 19 20 20 19 20
31 29 26 26 25 24 21 20 17 16 15 15 15 14 15 15 16 18 18 19 18 19 20 20 19 18 17 17 17 18 19 19 18 18 17 18 22 22 21 20 22 23 24
34 32 30 30 27 26 23 22 22 21 19 17 16 16 16 17 17 18 18 19 21 20 21 22 22 20 20 18 18 19 20 20 21 20 18 17 21 23 23 24 24 26 28
34 33 31 30 29 28 27 24 24 22 20 20 19 18 19 19 19 19 19 19 21 22 23 23 23 23 22 20 20 21 22 23 22 21 21 20 21 22 24 25 27 29 29
36 34 32 31 30 29 27 26 25 26 21 21 20 21 21 21 21 22 22 23 24 24 24 25 24 25 23 22 23 23 24 24 24 22 21 22 23 23 25 27 29 32 34
37 34 33 32 31 29 28 29 27 26 22 22 21 22 24 24 24 25 25 25 26 26 25 25 25 25 24 24 24 25 25 25 24 24 23 24 24 24 25 27 32 35 36
35 34 33 32 31 30 30 30 29 27 24 23 25 26 25 26 26 27 27 27 28 29 28 26 27 25 25 26 25 27 27 26 26 25 26 26 26 27 30 33 34 35 35
36 36 35 35 34 33 32 32 31 27 26 27 28 28 28 29 29 30 29 30 29 31 30 28 27 27 27 27 28 28 28 27 27 26 25 24 31 36 36 36 37 36 36
30 39 42 37 39 38 38 37 32 30 31 31 30 32 32 32 33 34 33 32 32 32 32 30 29 28 29 28 28 28 28 27 27 25 25 32 38 39 36 36 35 35 36
34 27 29 42 44 39 38 34 34 35 37 34 34 35 37 37 38 37 36 35 32 32 31 32 31 30 30 29 28 28 27 27 27 29 37 37 36 36 36 35 35 36 38
30 30 32 28 30 35 40 32 39 45 42 45 39 38 39 43 42 42 38 37 33 31 31 33 31 31 31 30 28 27 26 29 30 41 32 36 36 35 35 35 36 37 40
30 31 32 34 36 37 38 37 37 35 34 34 38 47 43 48 48 54 49 42 38 36 34 34 32 32 31 26 27 28 30 41 37 32 35 32 36 34 34 36 38 40 43
30 31 32 32 33 32 35 36 33 28 28 31 36 30 29 25 28 34 52 55 53 42 39 35 34 32 27 30 36 38 43 38 36 32 29 34 33 34 34 37 40 42 45
26 32 35 35 35 37 34 35 37 32 36 36 26 27 22 24 25 26 38 48 53 46 43 41 36 35 41 41 38 37 34 35 31 28 30 33 33 34 36 39 42 44 47
25 25 27 32 33 32 37 39 30 37 29 24 21 21 22 24 22 20 27 36 43 41 40 38 39 39 37 37 33 35 34 28 26 29 29 31 33 34 37 40 42 44 48
26 27 25 25 30 31 30 33 28 34 30 28 28 22 23 19 18 22 23 29 34 36 36 35 34 31 30 31 32 33 25 24 26 30 30 29 33 34 37 39 41 43 46
26 27 29 27 27 30 29 29 36 40 31 34 25 21 24 20 19 19 21 28 28 29 30 30 29 29 30 33 29 22 23 24 27 30 32 33 35 36 36 38 39 41 43
30 28 27 29 29 30 31 30 30 33 30 30 27 26 26 24 23 23 23 24 27 27 25 28 29 30 31 25 19 22 24 25 27 30 33 35 38 41 38 37 37 38 38
29 30 29 27 29 29 30 33 32 36 35 26 31 26 26 26 28 26 26 25 25 26 26 26 31 29 24 18 21 23 24 26 28 31 34 36 37 41 45 42 37 36 35
Wind_Direction
197 191 187 185 183 181 179 176 173 170 171 170 168 166 175 179 171 167 158 143 140 143 145 146 109 90 78 64 57 46 26 0 4 2 354 351 2 360 357 352 351 349 348
202 194 188 186 189 189 185 188 184 181 179 184 186 183 191 207 207 214 204 198 189 157 183 168 132 94 15 351 340 342 321 327 334 338 333 331 335 336 337 336 333 332 331
204 199 191 189 188 191 191 192 194 196 192 197 199 200 200 217 226 227 236 247 254 259 269 283 247 248 273 289 299 300 304 311 320 321 318 320 322 323 322 323 322 321 322
204 203 197 191 189 194 194 198 199 206 205 209 211 211 214 221 229 233 241 242 246 250 266 272 255 268 269 280 288 294 297 304 309 311 312 314 315 315 317 317 318 321 322
205 207 205 198 194 196 200 207 205 218 219 223 224 223 222 228 239 239 240 245 249 257 263 266 267 266 271 277 283 289 295 296 298 304 308 307 307 308 311 314 316 318 321
210 209 208 205 204 199 203 212 208 217 223 231 235 236 238 236 237 246 254 252 256 261 265 269 272 275 280 283 288 294 295 296 298 300 299 302 305 308 309 312 314 317 319
214 215 212 205 212 207 209 212 219 227 232 238 244 245 243 250 250 240 243 253 254 255 258 266 270 275 281 287 293 298 300 302 303 303 304 303 303 304 306 309 308 309 312
214 216 214 212 208 213 212 221 220 226 235 238 245 248 246 247 252 255 248 247 253 258 259 262 263 268 277 285 294 299 303 305 306 306 306 305 304 306 307 305 304 303 304
217 218 217 217 219 213 209 217 222 221 224 233 237 243 251 255 259 260 262 257 255 260 260 264 268 272 277 284 292 296 296 298 298 299 299 301 302 304 304 305 304 306 308
218 218 219 220 223 224 217 218 222 226 226 235 238 243 248 253 258 260 262 265 266 263 265 267 268 271 277 283 287 291 294 294 295 294 291 293 296 301 303 305 308 308 309
219 220 222 223 225 228 229 226 229 231 229 234 238 243 245 249 252 258 260 264 264 262 261 264 268 271 275 280 284 286 287 287 288 290 292 296 297 301 304 305 307 308 309
219 220 222 225 226 230 232 234 231 235 233 234 236 244 247 248 251 253 255 255 256 258 260 263 265 270 275 278 281 284 286 286 288 287 291 293 297 301 301 306 309 310 308
223 223 225 226 228 232 235 238 237 236 234 237 239 243 246 248 250 253 255 259 262 262 262 265 266 269 273 276 279 283 283 283 282 284 291 294 296 299 300 303 305 305 307
228 228 228 229 231 231 234 236 237 237 236 238 241 242 245 251 253 254 256 259 263 266 266 266 263 265 268 272 274 276 279 279 279 282 289 295 297 300 304 305 304 304 306
228 228 228 229 228 231 232 236 235 236 237 239 241 243 244 245 251 253 254 256 260 263 264 264 265 264 265 266 270 273 275 276 278 283 287 292 301 306 301 302 304 304 304
243 237 234 230 230 230 231 233 235 237 239 240 243 246 247 248 248 249 249 250 252 257 261 263 262 262 262 266 269 271 273 276 279 282 288 295 294 296 298 300 300 302 306
226 240 236 225 230 231 235 240 243 243 242 240 243 246 248 249 249 249 250 249 249 253 257 261 260 261 262 265 267 269 269 270 272 277 287 289 292 297 300 301 304 305 307
248 248 253 249 252 247 239 235 245 249 258 250 250 253 257 257 255 253 250 251 251 253 256 256 257 258 260 263 266 264 264 266 276 288 285 287 293 297 298 302 302 302 305
246 247 243 247 248 242 245 253 263 255 257 260 261 259 262 267 269 255 249 243 243 246 251 255 256 258 260 262 261 265 271 281 282 281 287 295 294 297 300 301 302 305 308
245 247 249 250 250 246 242 243 246 254 262 264 260 261 259 268 282 267 258 260 251 241 240 243 248 256 253 257 263 270 281 285 278 283 291 291 295 298 299 301 304 309 312
258 255 255 255 256 258 250 254 249 262 260 267 263 250 256 259 256 252 257 259 262 246 241 247 249 251 262 267 270 277 278 279 278 284 289 292 296 301 304 306 307 311 314
260 262 262 258 257 258 252 243 253 242 261 248 230 256 259 256 257 263 264 259 259 258 257 254 256 267 266 268 271 274 278 272 285 287 291 292 295 299 302 305 309 314 318
259 258 259 261 255 255 256 243 243 240 249 255 253 254 248 260 274 269 270 260 257 255 256 259 266 266 263 264 267 271 267 280 283 287 287 290 295 299 304 309 314 317 318
262 261 258 259 259 254 252 250 242 245 248 240 241 249 261 258 271 265 260 259 258 259 260 261 260 262 261 264 261 266 277 280 284 287 292 298 300 304 310 314 319 319 318
257 258 258 255 255 253 250 244 245 234 249 240 247 245 251 258 264 259 254 252 256 256 254 260 261 261 259 254 263 273 277 282 286 290 294 299 304 307 316 321 322 321 320
258 256 256 257 254 252 247 241 238 234 242 236 246 253 251 252 256 251 252 258 250 249 252 254 264 252 249 259 269 273 279 284 287 291 295 301 308 313 319 324 329 325 318